User: anonymous   Login
Location: Laguna de la Cañada del Gallo
(40.3974°N, 5.2096°W)
Time: 16:40:57
(UTC+00:00)
Language:

Resurs 01 Rocket - Orbit

View from above orbital plane
View from above orbital plane
View from above satellite
View from above satellite

Ground track
Ground track

The orbit data is extracted from the following two-line orbital elements,

1 23343U 94074B   24171.51280201  .00000621  00000-0  92630-4 0  9996
2 23343  97.7870 214.4025 0008166 102.0998  34.1976 14.78108060594613
Epoch (UTC): 19 June 2024 12:18:26
Eccentricity: 0.0008166
inclination: 97.7870°
perigee height: 629 km
apogee height: 641 km
right ascension of ascending node: 214.4025°
argument of perigee: 102.0998°
revolutions per day: 14.78108060
mean anomaly at epoch: 34.1976°
orbit number at epoch: 59461

The dashed part of the orbit path shows where the satellite is in the earth's shadow,  

DLR